Wheeler AAF, HI

10:47 PM HST on November 24, 2017 (GMT -1000)
Wheeler Army Air Field

Weather History for PHHI - October, 2013

Change the Weather History Date:

Friday, October 11, 2013

  Actual Average Record
Temperature  
Mean Temperature 78 °F -  
Max Temperature 87 °F 80 °F 87 °F (2013)
Min Temperature 68 °F 67 °F 64 °F (2005)
Cooling Degree Days 12    
Growing Degree Days 28 (Base 50)    
Moisture  
Dew Point 69 °F    
Average Humidity 78    
Maximum Humidity 94    
Minimum Humidity 49    
Precipitation  
Precipitation 0.00 in - - ()
Sea Level Pressure  
Sea Level Pressure 29.98 in    
Wind  
Wind Speed 4 mph (NNE)    
Max Wind Speed 10 mph    
Max Gust Speed -    
Visibility 10 miles    
Events      
Averages and records for this station are not official NWS values.
T = Trace of Precipitation, MM = Missing Value Source: NWS Daily Summary

Daily Weather History Graph

Daily Weather History Graph

Search for Another Location

Airport or City:

Trip Planner

Search our weather history database for the weather conditions in past years. The results will help you decide how hot, cold, wet, or windy it might be!

Date:

Astronomy

Oct. 11, 2013 Rise Set
Actual Time 6:26 AM HST 6:10 PM HST
Civil Twilight 6:04 AM HST 6:32 PM HST
Nautical Twilight 5:38 AM HST 6:58 PM HST
Astronomical Twilight 5:12 AM HST 7:24 PM HST
Moon 12:56 PM HST (10/11) No Moon Set
Length of Visible Light 12h 28m
Length of Day
11h 43m
Waxing Crescent, 50% of the Moon is Illuminated
Oct 11
Waxing Crescent
Oct 11
First Quarter
Oct 18
Full
Oct 26
Last Quarter
Nov 3
New

Hourly Weather History & Observations

Time (HST) Temp. Heat Index Dew Point Humidity Pressure Visibility Wind Dir Wind Speed Gust Speed Precip Events Conditions
12:58 AM 68.0 °F - 64.4 °F 88% 29.97 in 10.0 mi WNW 3.5 mph - N/A   Clear
1:58 AM 68.0 °F - 64.4 °F 88% 29.95 in 10.0 mi NW 3.5 mph - N/A   Clear
2:58 AM 68.0 °F - 64.4 °F 88% 29.94 in 10.0 mi WNW 5.8 mph - N/A   Clear
3:58 AM 68.0 °F - 64.4 °F 88% 29.93 in 10.0 mi NW 3.5 mph - N/A   Clear
4:58 AM 68.0 °F - 64.4 °F 88% 29.94 in 10.0 mi NW 3.5 mph - N/A   Clear
5:58 AM 68.0 °F - 64.4 °F 88% 29.96 in 10.0 mi WNW 4.6 mph - N/A   Clear
6:58 AM 68.0 °F - 66.2 °F 94% 29.97 in 10.0 mi NW 4.6 mph - N/A   Overcast
7:58 AM 73.4 °F - 68.0 °F 83% 29.99 in 10.0 mi NW 1.2 mph - N/A   Partly Cloudy
8:58 AM 78.8 °F - 68.0 °F 69% 30.00 in 10.0 mi Variable 2.3 mph - N/A   Scattered Clouds
9:58 AM 80.6 °F 83.2 °F 68.0 °F 65% 30.00 in 10.0 mi Variable 2.3 mph - N/A   Clear
10:58 AM 84.2 °F 87.3 °F 68.0 °F 58% 29.98 in 10.0 mi Variable 1.2 mph - N/A   Partly Cloudy
11:58 AM 87.8 °F 90.4 °F 66.2 °F 49% 29.96 in 10.0 mi Variable 4.6 mph - N/A   Overcast
12:58 PM 84.2 °F 88.4 °F 69.8 °F 62% 29.95 in 10.0 mi Variable 5.8 mph - N/A   Mostly Cloudy
1:23 PM 86.0 °F 90.4 °F 69.8 °F 58% 29.97 in 10.0 mi Variable 4.6 mph - N/A   Mostly Cloudy
1:58 PM 82.4 °F 86.3 °F 69.8 °F 66% 29.93 in 10.0 mi Variable 2.3 mph - N/A   Overcast
2:58 PM 80.6 °F 83.9 °F 69.8 °F 70% 29.92 in 10.0 mi ENE 10.4 mph - N/A   Overcast
3:58 PM 78.8 °F - 69.8 °F 74% 29.93 in 10.0 mi ENE 5.8 mph - N/A   Mostly Cloudy
4:48 PM 78.8 °F - 71.6 °F 78% 29.96 in 10.0 mi ENE 5.8 mph - N/A   Mostly Cloudy
4:53 PM 78.8 °F - 71.6 °F 78% 29.96 in 10.0 mi NE 5.8 mph - N/A   Mostly Cloudy
4:58 PM 78.8 °F - 71.6 °F 78% 29.94 in 10.0 mi ENE 6.9 mph - N/A   Mostly Cloudy
5:03 PM 78.8 °F - 71.6 °F 78% 29.97 in 10.0 mi NE 5.8 mph - N/A   Mostly Cloudy
5:43 PM 78.8 °F - 69.8 °F 74% 29.97 in 10.0 mi NNE 4.6 mph - N/A   Mostly Cloudy
5:58 PM 77.0 °F - 69.8 °F 78% 29.96 in 10.0 mi NNE 4.6 mph - N/A   Overcast
6:03 PM 77.0 °F - 69.8 °F 78% 29.98 in 10.0 mi NNE 4.6 mph - N/A   Mostly Cloudy
6:33 PM 77.0 °F - 69.8 °F 78% 29.99 in 10.0 mi NNE 3.5 mph - N/A   Mostly Cloudy
6:58 PM 77.0 °F - 69.8 °F 78% 29.98 in 10.0 mi NNE 5.8 mph - N/A   Mostly Cloudy
7:03 PM 77.0 °F - 69.8 °F 78% 30.01 in 10.0 mi NNE 4.6 mph - N/A   Scattered Clouds
7:18 PM 77.0 °F - 69.8 °F 78% 30.01 in 10.0 mi North 4.6 mph - N/A   Mostly Cloudy
7:28 PM 77.0 °F - 69.8 °F 78% 30.02 in 10.0 mi NE 4.6 mph - N/A   Mostly Cloudy
7:38 PM 77.0 °F - 69.8 °F 78% 30.02 in 10.0 mi North 5.8 mph - N/A   Mostly Cloudy
7:58 PM 77.0 °F - 69.8 °F 78% 30.00 in 10.0 mi SSE 3.5 mph - N/A   Mostly Cloudy
8:48 PM 75.2 °F - 69.8 °F 83% 30.04 in 10.0 mi Variable 4.6 mph - N/A   Overcast
8:58 PM 75.2 °F - 69.8 °F 83% 30.02 in 10.0 mi SE 3.5 mph - N/A   Mostly Cloudy
9:03 PM 75.2 °F - 69.8 °F 83% 30.05 in 10.0 mi SSE 3.5 mph - N/A   Mostly Cloudy
9:48 PM 75.2 °F - 69.8 °F 83% 30.06 in 10.0 mi ESE 3.5 mph - N/A   Scattered Clouds
9:58 PM 75.2 °F - 69.8 °F 83% 30.01 in 10.0 mi East 3.5 mph - N/A   Scattered Clouds
10:38 PM 75.2 °F - 69.8 °F 83% 30.05 in 10.0 mi East 4.6 mph - N/A   Mostly Cloudy
10:58 PM 73.4 °F - 69.8 °F 88% 30.01 in 10.0 mi NE 3.5 mph - N/A   Scattered Clouds
11:58 PM 71.6 °F - 68.0 °F 88% 30.00 in 10.0 mi Variable 1.2 mph - N/A   Clear